User: anonymous   Login
Location: Newark
(42.7133°N, 87.7910°W)
Time: 18:15:26
(UTC+00:00)
Language:

Tiros 1 despin weight - Orbit

View from above orbital plane
View from above orbital plane
View from above satellite
View from above satellite

Ground track
Ground track

The orbit data is extracted from the following two-line orbital elements,

1   115U 60002D   19294.35227461  .00000096  00000-0  38480-4 0  9992
2   115  48.1680 348.7060 0035260 270.4763  89.2109 14.83494249177326
Epoch (UTC): 21 October 2019 08:27:16
Eccentricity: 0.0035260
inclination: 48.1680°
perigee height: 593 km
apogee height: 643 km
right ascension of ascending node: 348.7060°
argument of perigee: 270.4763°
revolutions per day: 14.83494249
mean anomaly at epoch: 89.2109°
orbit number at epoch: 17732

The dashed part of the orbit path shows where the satellite is in the earth's shadow,  

DLR